Location: Comstock Ranch
(38.0499°N, 120.2627°W)
Time: 22:34:41
(UTC+00:00)

Cosmos 1812 - Pass Details

Date: 08 September 2024
Orbit: 452 x 455 km, 82.5° (Epoch: 12 October)

Event Time Altitude Azimuth Distance (km) Brightness Sun altitude
Rises 11:09:11 0° 118° (ESE) 2,475 6.5 -28.0°
Enters shadow 12:18:46 -51° 187° (S) 10,452 9.2 -15.8°
Maximum altitude 12:46:13 74° 277° (W) 484 2.4 -10.7°
